Lid_Strength_Index
3 3 3 2 2 2 2 2 2 2 1 1 1 0 0 0 1 0 3 1 2 0 2 5 4 4 4 5 5 5 8 10 9 8 7 6 7 5 6 7 6 6 5 2 1
3 3 3 3 3 2 2 3 2 2 2 1 1 0 0 0 2 4 -1 -3 -2 -0 6 6 6 5 6 5 5 7 8 8 6 6 6 6 5 6 6 6 7 5 2 2 1
3 3 3 3 3 3 3 2 2 2 2 1 1 1 1 0 4 4 -3 -3 -2 1 6 6 5 6 7 6 6 6 8 7 7 5 5 6 5 5 5 6 5 4 3 2 2
3 3 3 3 3 3 3 3 2 2 2 2 1 1 0 1 8 3 -3 -3 -3 3 5 6 6 7 7 8 7 9 7 7 7 6 6 6 5 6 5 5 4 2 2 2 2
3 3 3 3 3 3 3 3 3 2 2 2 1 1 1 5 5 1 -3 -2 2 3 4 7 7 6 7 7 7 8 8 7 7 7 6 5 6 5 5 5 4 2 2 2 2
2 2 2 2 2 3 3 3 3 3 2 2 1 1 3 7 2 1 2 2 3 3 4 6 7 5 6 7 7 6 7 7 7 7 7 6 6 6 5 5 4 3 3 3 2
3 3 2 2 2 2 2 3 3 3 2 1 1 1 5 6 2 2 3 3 3 3 5 4 5 6 6 7 6 6 7 6 6 6 6 6 8 7 5 4 5 4 4 3 3
3 3 2 2 2 2 2 2 2 2 2 1 0 2 6 4 2 3 3 4 3 3 4 4 4 5 6 6 6 7 6 8 6 6 6 6 8 5 4 5 5 5 4 4 3
3 3 3 2 2 2 2 2 1 1 1 1 2 4 7 4 5 3 2 5 4 4 3 4 4 6 6 7 8 8 9 8 7 6 6 7 7 5 4 5 5 5 4 4 3
3 3 3 3 2 2 2 2 1 -0 -0 1 2 6 5 6 4 3 2 3 5 5 5 5 6 8 8 8 11 10 10 8 8 7 7 7 7 6 5 5 5 5 4 4 4
3 3 3 3 3 2 1 1 2 3 2 4 4 5 6 4 3 4 2 4 5 5 8 6 8 9 8 8 8 8 8 9 8 7 7 8 7 6 5 6 5 5 4 4 4
3 3 3 3 3 2 1 2 4 3 5 3 3 3 3 3 6 5 3 5 6 8 7 8 9 7 7 8 9 9 9 9 7 7 7 7 8 6 5 5 5 5 4 4 3
3 3 3 3 3 2 2 4 2 2 5 5 4 4 4 3 5 5 4 5 7 8 8 9 8 7 8 8 9 8 9 9 9 7 7 8 8 7 6 5 5 4 4 4 4
4 3 3 4 2 2 3 3 2 1 7 7 5 4 4 4 6 2 3 4 7 8 7 8 7 8 8 9 8 9 7 8 8 9 11 7 12 7 6 6 5 4 4 4 3
4 4 4 4 3 3 5 3 1 2 13 6 6 2 3 5 5 5 2 4 6 7 8 9 8 8 9 8 8 9 8 7 7 8 8 9 10 8 6 7 6 5 4 3 3
4 4 4 4 3 4 4 2 2 8 13 8 6 6 6 5 5 5 4 3 4 6 6 7 6 7 7 7 7 7 8 8 8 8 12 9 10 9 8 7 6 5 4 3 3
4 4 4 3 6 4 3 2 8 12 8 9 8 7 7 7 6 6 6 7 8 9 9 7 7 6 7 8 7 7 8 12 12 12 13 9 10 9 7 7 6 5 4 4 3
5 5 4 4 3 3 2 6 11 10 9 7 8 7 8 7 7 7 7 8 6 7 9 10 11 7 6 7 8 8 8 12 16 14 12 9 12 9 6 5 5 4 4 4 3
5 4 4 4 3 3 4 9 9 9 8 9 8 9 9 8 7 7 8 8 7 7 9 10 10 6 6 5 6 8 9 7 10 9 12 10 9 7 5 5 5 4 4 4 4
5 5 5 3 2 3 6 9 8 8 8 8 10 9 10 9 9 9 8 7 8 7 6 8 11 7 6 5 6 7 6 10 10 14 15 11 10 10 8 6 5 5 5 4 3
5 6 5 3 2 5 9 8 9 8 8 9 9 9 9 10 9 9 9 7 7 7 6 8 9 9 7 8 8 8 9 8 9 10 13 14 11 6 6 6 5 5 4 4 4
6 8 5 3 7 7 9 10 10 9 8 10 8 9 9 9 10 10 9 8 8 6 9 7 9 12 9 7 6 7 8 8 14 13 10 11 11 5 5 5 4 5 4 4 3
8 8 5 4 11 11 10 11 11 11 10 11 11 10 9 10 12 10 9 8 8 8 8 7 10 14 12 9 7 9 8 8 8 9 12 15 12 5 5 5 4 4 4 4 3
8 10 9 8 9 11 12 12 12 10 11 10 10 10 11 11 9 11 11 9 9 9 8 8 9 11 14 10 8 10 9 8 9 13 12 11 9 7 6 5 5 4 4 3 3
8 11 11 12 11 11 11 12 13 12 10 9 10 11 12 13 12 12 10 10 9 9 9 9 12 10 9 9 9 9 10 9 10 10 12 10 9 7 6 5 5 4 4 4 4
10 11 10 10 11 11 12 11 12 11 10 10 10 9 10 11 11 12 11 11 11 9 10 8 12 10 12 10 10 11 10 9 9 9 9 9 9 6 5 4 5 4 4 4 4
7 8 9 11 11 11 11 11 10 9 9 8 8 9 10 9 8 8 7 8 9 10 11 10 11 12 15 11 11 14 11 10 9 8 9 10 8 5 6 5 5 4 4 4 3